SCP
0 0 0 0 0 0 0 0 0 0 0 0 0 0 0 0 0 0 0 0 0 0 0 0 0 0 0 0 0 0 0 0 0 0 0 0 0 0 0 0 0 0 0
0 0 0 0 0 0 0 0 0 0 0 0 0 0 0 0 0 0 0 0 0 0 0 0 0 0 0 0 0 0 0 0 0 0 0 0 0 0 0 0 0 0 0
0 0 0 0 0 0 0 0 0 0 0 0 0 0 0 0 0 0 0 0 0 0 0 0 0 0 0 0 0 0 0 0 0 0 0 0 0 0 0 0 0 0 0
0 0 0 0 0 0 0 0 0 0 0 0 0 0 0 0 0 0 0 0 0 0 0 0 0 0 0 0 0 0 0 0 0 0 0 0 0 0 0 0 0 0 0
0 0 0 0 0 0 0 0 0 0 0 0 0 0 0 0 0 0 0 0 0 0 0 0 0 0 0 0 0 0 0 0 0 0 0 0 0 0 0 -0 -0 -0 -0
0 0 0 0 0 0 0 0 0 0 0 0 0 0 0 0 0 0 0 0 0 0 0 0 0 0 0 0 0 0 0 0 0 0 0 0 0 0 -0 -0 -0 -0 -0
0 0 0 0 0 0 0 0 0 0 0 0 0 0 0 0 0 0 0 0 0 0 0 0 0 0 0 0 0 0 0 0 0 0 0 0 0 0 0 -0 0 0 0
0 0 0 0 0 0 0 0 0 0 0 0 0 0 0 0 0 0 0 0 0 0 0 0 0 0 0 0 0 0 0 0 0 0 0 0 0 0 0 0 0 0 0
0 0 0 0 0 0 0 0 0 0 0 0 0 0 0 0 0 0 0 0 0 0 0 0 0 0 0 0 0 0 0 0 0 0 0 0 0 0 0 0 0 0 0
0 0 0 0 0 0 0 0 0 0 0 0 0 0 0 0 0 0 0 0 0 0 0 0 0 0 0 0 0 0 0 0 0 0 0 0 0 0 0 0 0 0 0
0 0 0 0 0 0 0 0 0 0 0 0 0 0 0 0 0 0 0 0 0 0 0 0 0 0 0 0 0 0 0 0 0 0 0 0 0 0 0 0 0 0 0
0 0 0 0 0 0 0 0 0 0 0 0 0 0 0 0 0 0 0 0 0 0 0 0 0 0 0 0 0 0 0 0 0 0 0 0 0 0 0 0 0 0 0
0 0 0 0 0 0 0 0 0 0 0 0 0 0 0 0 0 0 0 0 0 0 0 0 0 0 0 0 0 0 0 0 0 0 0 0 0 0 0 0 0 0 0
0 0 0 0 0 0 0 0 0 0 0 0 0 0 0 0 0 0 0 0 0 0 0 0 0 0 0 0 0 0 0 0 0 0 0 0 0 0 0 0 0 0 0
0 0 0 0 0 0 0 0 0 0 0 0 0 0 0 0 0 0 0 0 0 0 0 0 0 0 0 0 0 0 0 0 0 0 0 0 0 0 0 0 0 0 0
0 0 0 0 0 0 0 0 0 0 0 0 0 0 0 0 0 0 0 0 0 0 0 0 0 0 0 0 0 0 0 0 0 0 0 0 0 0 0 0 0 0 0
0 0 0 0 0 0 0 0 0 0 0 0 0 0 0 0 0 0 0 0 0 0 0 0 0 0 0 0 0 0 0 0 0 0 0 0 0 0 0 0 0 0 0
0 0 0 0 0 0 0 0 0 0 0 0 0 0 0 0 0 0 0 0 0 0 0 0 0 0 0 0 0 0 0 0 0 0 0 0 0 0 0 0 0 0 0
-0 -0 0 0 0 0 0 0 0 0 0 0 0 0 0 0 0 0 0 0 0 0 0 0 0 0 0 0 0 0 0 0 0 0 0 0 0 0 0 0 0 0 0
0 0 0 0 0 0 0 0 0 0 0 0 0 0 0 0 0 0 0 0 0 0 0 0 0 0 0 0 0 0 0 0 0 0 0 0 0 0 0 0 0 0 0
0 0 0 0 0 0 0 0 0 0 0 0 0 0 0 0 0 0 0 0 0 0 0 0 0 0 0 0 0 0 0 0 0 0 0 0 0 0 0 0 0 0 0
0 0 0 0 0 0 0 0 0 0 0 0 0 0 0 0 0 0 0 0 0 0 0 0 0 0 0 0 0 0 0 0 0 0 0 0 0 0 0 0 0 0 0
0 0 0 0 0 0 0 0 0 0 0 0 0 0 0 0 0 0 0 0 0 0 0 0 0 0 0 0 0 0 0 0 0 0 0 0 0 0 0 0 0 0 0
0 0 0 0 0 0 0 0 0 0 0 0 0 0 0 0 0 0 0 0 0 0 0 0 0 0 0 0 0 0 0 0 0 0 0 0 0 0 0 0 0 0 0
0 0 0 0 0 0 0 0 0 0 0 0 0 0 0 0 0 0 0 0 0 0 0 0 0 0 0 0 0 0 0 0 0 0 0 0 0 0 0 0 0 0 0
0 0 0 0 0 0 0 0 0 0 0 0 0 0 0 0 0 0 0 0 0 0 0 0 0 0 0 0 0 0 0 0 0 0 0 0 0 0 0 0 0 0 0
Wind_Speed_500mb
71 66 58 55 57 70 70 70 70 73 76 62 50 16 13 11 24 23 25 18 17 14 12 15 15 14 15 17 22 28 31 33 34 39 37 38 39 43 43 45 47 48 47
68 77 84 92 67 62 65 70 69 69 54 46 19 15 7 26 27 24 17 11 14 19 15 11 13 17 22 26 28 28 31 35 38 40 41 42 43 45 47 49 49 49 46
54 72 79 80 87 90 65 49 46 33 35 38 25 8 30 30 22 18 18 20 20 17 14 13 17 22 24 25 27 28 29 32 37 40 45 42 43 47 49 51 50 49 42
59 70 82 84 83 81 75 63 54 53 46 33 26 35 33 26 23 24 23 16 13 14 14 15 17 17 19 22 26 29 31 31 34 38 43 45 45 47 53 61 63 60 57
53 67 83 95 89 85 81 77 73 69 53 43 47 48 38 30 27 21 16 13 13 13 14 14 15 17 22 24 24 26 30 34 37 39 41 45 49 58 60 63 65 69 67
49 58 75 85 92 94 89 79 71 63 57 52 39 38 39 32 26 20 14 10 10 9 11 12 12 13 16 20 24 29 34 36 39 41 41 46 50 53 58 60 61 66 66
46 55 65 76 85 84 78 74 63 55 50 45 41 31 30 26 20 15 10 8 7 4 4 8 11 14 18 21 25 28 31 35 38 37 41 45 48 47 53 58 57 58 63
38 50 58 66 59 59 64 60 57 47 42 36 37 32 23 20 16 13 10 7 4 3 7 11 16 20 24 28 27 26 28 30 30 33 36 38 40 43 43 46 53 58 56
48 52 51 58 57 48 62 47 44 35 40 32 27 26 22 18 16 11 9 8 6 5 8 11 15 21 25 31 32 32 29 29 30 32 33 35 37 36 42 51 54 64 69
53 57 55 43 49 41 42 41 35 37 29 31 29 26 21 19 15 11 7 4 4 7 8 12 19 24 30 34 36 37 35 36 33 33 34 34 33 34 42 46 49 54 57
53 48 43 40 36 34 37 36 36 34 31 30 26 26 22 21 16 11 6 1 5 7 10 14 19 26 31 37 40 39 40 38 35 34 33 35 38 40 40 43 44 46 51
54 54 45 37 37 35 31 30 31 32 32 28 25 25 23 18 13 9 2 3 9 10 11 16 23 31 35 38 38 40 41 40 36 35 37 39 39 41 41 42 41 41 41
44 43 40 34 29 31 32 27 26 27 24 24 24 21 18 13 10 5 5 9 13 16 20 27 32 35 34 34 38 41 41 39 39 37 37 38 39 43 44 44 42 43 40
36 34 28 27 28 24 21 22 22 22 25 24 22 18 14 13 9 8 10 14 19 25 30 33 33 31 32 37 38 38 37 37 37 38 39 39 40 41 43 46 50 53 55
31 28 27 26 23 23 22 21 24 26 22 19 18 20 16 16 13 12 17 24 27 33 35 33 28 28 31 34 34 34 34 34 36 37 38 39 40 41 41 44 49 55 58
23 22 22 18 19 21 23 26 28 27 27 27 25 23 21 21 20 23 29 34 36 35 32 27 29 31 33 33 33 32 33 35 36 36 35 37 39 41 45 47 50 54 60
16 13 13 15 17 19 20 22 25 29 29 29 32 34 31 30 31 37 38 35 33 34 30 29 30 31 32 31 32 33 34 34 33 32 32 34 38 41 45 48 51 55 60
18 17 17 18 21 24 27 30 33 37 38 39 36 35 36 38 41 38 36 36 33 31 29 29 30 31 30 30 31 32 31 29 27 27 28 30 35 41 45 49 51 57 63
20 19 20 22 24 26 29 32 34 36 37 41 41 43 42 38 41 40 38 34 31 30 30 30 30 29 29 30 30 29 26 24 26 28 29 32 35 40 43 46 50 52 59
29 30 30 29 29 31 34 37 38 40 43 44 43 42 44 41 43 37 33 31 30 29 29 29 29 29 30 29 27 24 23 24 26 31 33 36 37 36 41 46 48 52 55
35 37 38 39 38 38 38 40 40 42 43 44 44 45 46 43 39 36 34 31 29 28 28 28 28 29 28 26 22 23 25 27 30 35 37 38 40 42 40 44 49 53 59
43 44 42 40 38 40 39 39 43 46 47 48 46 43 45 38 35 33 30 29 28 27 26 28 28 26 22 20 21 25 28 29 31 36 40 44 47 47 46 47 50 54 61
41 35 33 34 36 39 42 44 47 49 48 44 41 41 39 34 31 30 28 27 26 24 26 25 21 18 17 20 24 27 30 33 37 42 49 53 54 51 47 46 49 58 64
32 31 33 35 37 40 42 44 46 46 43 41 39 37 35 32 29 27 26 25 21 24 22 18 14 13 16 19 23 29 34 37 42 47 52 56 57 51 46 42 46 56 63
26 27 29 34 38 42 45 45 43 39 37 35 34 33 31 29 27 26 23 18 21 18 12 10 12 17 22 25 30 34 37 41 47 50 53 57 56 50 46 51 53 61 67
24 32 38 42 42 44 42 39 36 34 33 31 30 29 27 26 25 19 16 17 13 10 7 10 17 23 28 32 36 41 46 49 52 54 56 52 51 53 51 59 64 65 68
Wind_Direction_500mb
224 221 233 228 228 226 226 224 225 228 214 187 157 153 182 219 237 225 225 219 249 254 236 240 248 266 280 292 297 302 300 301 301 305 307 309 313 311 308 309 312 314 319
225 220 220 229 239 237 222 211 197 189 179 163 159 189 171 221 235 227 230 204 234 243 248 249 267 282 294 298 299 299 305 308 309 310 311 316 320 318 322 321 324 325 328
233 229 222 221 218 221 219 215 181 201 182 162 178 224 217 212 209 219 213 200 213 232 241 258 275 282 287 295 300 304 305 306 310 315 319 324 323 322 321 323 326 325 332
226 227 220 218 214 207 206 199 205 184 196 203 210 198 206 200 199 199 198 201 221 247 258 262 276 288 296 304 312 317 317 317 318 319 321 324 328 328 327 327 330 332 341
236 220 212 209 203 192 195 189 183 184 190 190 186 184 191 191 189 209 210 215 235 264 291 296 297 303 309 318 323 326 326 327 327 327 329 330 332 333 334 335 335 336 342
235 221 203 201 187 185 181 180 178 176 178 174 172 171 179 182 183 192 201 225 248 260 274 295 318 332 341 347 347 345 338 334 331 331 332 331 334 334 330 333 334 338 343
228 214 198 184 179 175 170 167 162 160 162 162 159 180 178 175 174 182 193 201 217 240 306 335 343 351 355 354 348 342 336 330 333 332 327 329 329 331 328 328 334 336 336
208 197 180 174 165 157 152 151 146 148 151 173 165 176 176 166 161 172 172 154 122 51 15 2 358 353 351 346 344 341 336 334 330 327 327 329 329 328 321 329 331 326 326
174 160 159 151 144 144 135 143 139 159 165 167 158 161 167 158 151 140 130 123 106 73 43 16 359 348 345 344 341 339 339 337 333 329 327 328 330 324 326 331 332 334 335
148 141 141 143 134 144 137 141 162 157 171 162 166 161 155 145 131 113 114 91 82 45 12 358 355 350 346 341 340 334 335 337 336 331 331 328 324 326 331 334 337 337 336
132 125 124 126 140 153 147 155 159 158 168 166 161 154 150 145 142 152 152 29 9 10 1 350 344 338 340 337 334 330 335 333 332 333 328 324 325 328 332 333 337 334 333
130 132 134 150 160 157 147 160 167 169 169 163 162 160 161 161 166 174 140 322 339 334 330 332 333 332 331 326 322 323 325 328 329 326 324 322 325 327 329 332 332 329 331
140 139 145 152 163 171 167 171 173 172 169 168 173 175 174 175 198 214 277 308 309 316 327 328 326 321 319 317 318 322 323 321 321 323 326 330 333 331 330 326 328 329 332
160 160 166 173 176 180 172 176 182 185 185 190 192 192 196 223 244 273 291 300 310 314 316 312 306 308 316 323 320 317 316 318 323 327 328 327 327 329 335 338 338 338 338
171 169 171 176 182 189 188 190 198 202 203 214 218 227 237 252 259 272 285 295 301 299 293 289 299 315 316 313 311 312 315 319 320 322 322 326 333 337 341 344 346 347 346
178 181 186 193 204 209 212 213 214 218 222 229 236 248 254 257 271 279 285 287 281 281 285 299 309 309 309 308 309 311 313 315 317 322 329 334 337 341 347 349 347 346 345
199 213 221 232 241 246 248 249 242 237 241 247 251 253 259 272 273 274 277 276 279 285 295 299 301 304 307 307 308 312 314 315 319 327 331 335 339 344 346 346 346 346 346
211 222 231 236 239 241 242 242 242 244 248 250 257 264 270 270 270 273 274 276 280 286 290 296 302 304 303 305 309 310 310 314 320 325 331 337 339 340 341 341 344 347 348
243 253 258 260 258 254 250 248 250 253 258 262 263 264 266 266 264 270 273 275 280 285 291 295 297 298 301 304 305 308 312 318 323 326 328 333 337 336 339 343 344 346 343
244 253 260 265 267 268 263 262 262 263 263 264 263 262 262 260 265 272 272 275 278 283 288 291 294 298 302 304 304 307 315 319 315 317 327 332 334 335 337 342 344 341 339
258 261 265 265 267 270 267 263 264 265 265 263 261 259 260 260 263 266 268 270 273 279 287 293 298 299 300 300 305 314 316 314 316 321 326 329 332 331 330 332 330 326 326
271 270 267 267 269 271 272 268 265 264 261 258 257 254 256 259 257 258 258 263 271 281 290 292 293 294 294 302 311 310 310 317 321 322 323 325 326 329 327 321 320 321 325
270 269 271 275 275 274 272 269 266 264 262 260 256 253 257 254 250 248 252 260 272 283 284 286 285 287 302 310 309 311 318 321 321 322 324 326 327 323 317 315 322 328 329
266 269 270 268 268 269 269 268 267 263 258 254 250 247 245 244 242 242 252 267 277 277 278 275 281 295 300 304 311 316 317 317 318 319 318 318 315 314 312 315 322 328 334
262 260 263 267 267 270 273 272 266 259 253 247 241 236 233 231 232 244 255 264 266 266 265 279 298 305 312 316 315 315 317 318 317 315 312 306 304 309 312 314 314 323 324
261 265 266 265 268 274 273 266 259 251 244 236 229 223 218 223 236 245 251 249 240 239 272 303 310 314 315 314 315 319 319 317 314 311 310 311 313 315 316 320 321 321 320
Wind_Speed_850mb
71 66 58 55 57 70 70 70 70 73 76 62 50 16 13 11 24 23 25 18 17 14 12 15 15 14 15 17 22 28 31 33 34 39 37 38 39 43 43 45 47 48 47
68 77 84 92 67 62 65 70 69 69 54 46 19 15 7 26 27 24 17 11 14 19 15 11 13 17 22 26 28 28 31 35 38 40 41 42 43 45 47 49 49 49 46
54 72 79 80 87 90 65 49 46 33 35 38 25 8 30 30 22 18 18 20 20 17 14 13 17 22 24 25 27 28 29 32 37 40 45 42 43 47 49 51 50 49 42
59 70 82 84 83 81 75 63 54 53 46 33 26 35 33 26 23 24 23 16 13 14 14 15 17 17 19 22 26 29 31 31 34 38 43 45 45 47 53 61 63 60 57
53 67 83 95 89 85 81 77 73 69 53 43 47 48 38 30 27 21 16 13 13 13 14 14 15 17 22 24 24 26 30 34 37 39 41 45 49 58 60 63 65 69 67
49 58 75 85 92 94 89 79 71 63 57 52 39 38 39 32 26 20 14 10 10 9 11 12 12 13 16 20 24 29 34 36 39 41 41 46 50 53 58 60 61 66 66
46 55 65 76 85 84 78 74 63 55 50 45 41 31 30 26 20 15 10 8 7 4 4 8 11 14 18 21 25 28 31 35 38 37 41 45 48 47 53 58 57 58 63
38 50 58 66 59 59 64 60 57 47 42 36 37 32 23 20 16 13 10 7 4 3 7 11 16 20 24 28 27 26 28 30 30 33 36 38 40 43 43 46 53 58 56
48 52 51 58 57 48 62 47 44 35 40 32 27 26 22 18 16 11 9 8 6 5 8 11 15 21 25 31 32 32 29 29 30 32 33 35 37 36 42 51 54 64 69
53 57 55 43 49 41 42 41 35 37 29 31 29 26 21 19 15 11 7 4 4 7 8 12 19 24 30 34 36 37 35 36 33 33 34 34 33 34 42 46 49 54 57
53 48 43 40 36 34 37 36 36 34 31 30 26 26 22 21 16 11 6 1 5 7 10 14 19 26 31 37 40 39 40 38 35 34 33 35 38 40 40 43 44 46 51
54 54 45 37 37 35 31 30 31 32 32 28 25 25 23 18 13 9 2 3 9 10 11 16 23 31 35 38 38 40 41 40 36 35 37 39 39 41 41 42 41 41 41
44 43 40 34 29 31 32 27 26 27 24 24 24 21 18 13 10 5 5 9 13 16 20 27 32 35 34 34 38 41 41 39 39 37 37 38 39 43 44 44 42 43 40
36 34 28 27 28 24 21 22 22 22 25 24 22 18 14 13 9 8 10 14 19 25 30 33 33 31 32 37 38 38 37 37 37 38 39 39 40 41 43 46 50 53 55
31 28 27 26 23 23 22 21 24 26 22 19 18 20 16 16 13 12 17 24 27 33 35 33 28 28 31 34 34 34 34 34 36 37 38 39 40 41 41 44 49 55 58
23 22 22 18 19 21 23 26 28 27 27 27 25 23 21 21 20 23 29 34 36 35 32 27 29 31 33 33 33 32 33 35 36 36 35 37 39 41 45 47 50 54 60
16 13 13 15 17 19 20 22 25 29 29 29 32 34 31 30 31 37 38 35 33 34 30 29 30 31 32 31 32 33 34 34 33 32 32 34 38 41 45 48 51 55 60
18 17 17 18 21 24 27 30 33 37 38 39 36 35 36 38 41 38 36 36 33 31 29 29 30 31 30 30 31 32 31 29 27 27 28 30 35 41 45 49 51 57 63
20 19 20 22 24 26 29 32 34 36 37 41 41 43 42 38 41 40 38 34 31 30 30 30 30 29 29 30 30 29 26 24 26 28 29 32 35 40 43 46 50 52 59
29 30 30 29 29 31 34 37 38 40 43 44 43 42 44 41 43 37 33 31 30 29 29 29 29 29 30 29 27 24 23 24 26 31 33 36 37 36 41 46 48 52 55
35 37 38 39 38 38 38 40 40 42 43 44 44 45 46 43 39 36 34 31 29 28 28 28 28 29 28 26 22 23 25 27 30 35 37 38 40 42 40 44 49 53 59
43 44 42 40 38 40 39 39 43 46 47 48 46 43 45 38 35 33 30 29 28 27 26 28 28 26 22 20 21 25 28 29 31 36 40 44 47 47 46 47 50 54 61
41 35 33 34 36 39 42 44 47 49 48 44 41 41 39 34 31 30 28 27 26 24 26 25 21 18 17 20 24 27 30 33 37 42 49 53 54 51 47 46 49 58 64
32 31 33 35 37 40 42 44 46 46 43 41 39 37 35 32 29 27 26 25 21 24 22 18 14 13 16 19 23 29 34 37 42 47 52 56 57 51 46 42 46 56 63
26 27 29 34 38 42 45 45 43 39 37 35 34 33 31 29 27 26 23 18 21 18 12 10 12 17 22 25 30 34 37 41 47 50 53 57 56 50 46 51 53 61 67
24 32 38 42 42 44 42 39 36 34 33 31 30 29 27 26 25 19 16 17 13 10 7 10 17 23 28 32 36 41 46 49 52 54 56 52 51 53 51 59 64 65 68
Wind_Direction_850mb
224 221 233 228 228 226 226 224 225 228 214 187 157 153 182 219 237 225 225 219 249 254 236 240 248 266 280 292 297 302 300 301 301 305 307 309 313 311 308 309 312 314 319
225 220 220 229 239 237 222 211 197 189 179 163 159 189 171 221 235 227 230 204 234 243 248 249 267 282 294 298 299 299 305 308 309 310 311 316 320 318 322 321 324 325 328
233 229 222 221 218 221 219 215 181 201 182 162 178 224 217 212 209 219 213 200 213 232 241 258 275 282 287 295 300 304 305 306 310 315 319 324 323 322 321 323 326 325 332
226 227 220 218 214 207 206 199 205 184 196 203 210 198 206 200 199 199 198 201 221 247 258 262 276 288 296 304 312 317 317 317 318 319 321 324 328 328 327 327 330 332 341
236 220 212 209 203 192 195 189 183 184 190 190 186 184 191 191 189 209 210 215 235 264 291 296 297 303 309 318 323 326 326 327 327 327 329 330 332 333 334 335 335 336 342
235 221 203 201 187 185 181 180 178 176 178 174 172 171 179 182 183 192 201 225 248 260 274 295 318 332 341 347 347 345 338 334 331 331 332 331 334 334 330 333 334 338 343
228 214 198 184 179 175 170 167 162 160 162 162 159 180 178 175 174 182 193 201 217 240 306 335 343 351 355 354 348 342 336 330 333 332 327 329 329 331 328 328 334 336 336
208 197 180 174 165 157 152 151 146 148 151 173 165 176 176 166 161 172 172 154 122 51 15 2 358 353 351 346 344 341 336 334 330 327 327 329 329 328 321 329 331 326 326
174 160 159 151 144 144 135 143 139 159 165 167 158 161 167 158 151 140 130 123 106 73 43 16 359 348 345 344 341 339 339 337 333 329 327 328 330 324 326 331 332 334 335
148 141 141 143 134 144 137 141 162 157 171 162 166 161 155 145 131 113 114 91 82 45 12 358 355 350 346 341 340 334 335 337 336 331 331 328 324 326 331 334 337 337 336
132 125 124 126 140 153 147 155 159 158 168 166 161 154 150 145 142 152 152 29 9 10 1 350 344 338 340 337 334 330 335 333 332 333 328 324 325 328 332 333 337 334 333
130 132 134 150 160 157 147 160 167 169 169 163 162 160 161 161 166 174 140 322 339 334 330 332 333 332 331 326 322 323 325 328 329 326 324 322 325 327 329 332 332 329 331
140 139 145 152 163 171 167 171 173 172 169 168 173 175 174 175 198 214 277 308 309 316 327 328 326 321 319 317 318 322 323 321 321 323 326 330 333 331 330 326 328 329 332
160 160 166 173 176 180 172 176 182 185 185 190 192 192 196 223 244 273 291 300 310 314 316 312 306 308 316 323 320 317 316 318 323 327 328 327 327 329 335 338 338 338 338
171 169 171 176 182 189 188 190 198 202 203 214 218 227 237 252 259 272 285 295 301 299 293 289 299 315 316 313 311 312 315 319 320 322 322 326 333 337 341 344 346 347 346
178 181 186 193 204 209 212 213 214 218 222 229 236 248 254 257 271 279 285 287 281 281 285 299 309 309 309 308 309 311 313 315 317 322 329 334 337 341 347 349 347 346 345
199 213 221 232 241 246 248 249 242 237 241 247 251 253 259 272 273 274 277 276 279 285 295 299 301 304 307 307 308 312 314 315 319 327 331 335 339 344 346 346 346 346 346
211 222 231 236 239 241 242 242 242 244 248 250 257 264 270 270 270 273 274 276 280 286 290 296 302 304 303 305 309 310 310 314 320 325 331 337 339 340 341 341 344 347 348
243 253 258 260 258 254 250 248 250 253 258 262 263 264 266 266 264 270 273 275 280 285 291 295 297 298 301 304 305 308 312 318 323 326 328 333 337 336 339 343 344 346 343
244 253 260 265 267 268 263 262 262 263 263 264 263 262 262 260 265 272 272 275 278 283 288 291 294 298 302 304 304 307 315 319 315 317 327 332 334 335 337 342 344 341 339
258 261 265 265 267 270 267 263 264 265 265 263 261 259 260 260 263 266 268 270 273 279 287 293 298 299 300 300 305 314 316 314 316 321 326 329 332 331 330 332 330 326 326
271 270 267 267 269 271 272 268 265 264 261 258 257 254 256 259 257 258 258 263 271 281 290 292 293 294 294 302 311 310 310 317 321 322 323 325 326 329 327 321 320 321 325
270 269 271 275 275 274 272 269 266 264 262 260 256 253 257 254 250 248 252 260 272 283 284 286 285 287 302 310 309 311 318 321 321 322 324 326 327 323 317 315 322 328 329
266 269 270 268 268 269 269 268 267 263 258 254 250 247 245 244 242 242 252 267 277 277 278 275 281 295 300 304 311 316 317 317 318 319 318 318 315 314 312 315 322 328 334
262 260 263 267 267 270 273 272 266 259 253 247 241 236 233 231 232 244 255 264 266 266 265 279 298 305 312 316 315 315 317 318 317 315 312 306 304 309 312 314 314 323 324
261 265 266 265 268 274 273 266 259 251 244 236 229 223 218 223 236 245 251 249 240 239 272 303 310 314 315 314 315 319 319 317 314 311 310 311 313 315 316 320 321 321 320